GAP2295 RPVM-RPMY

Flight info

Callsign GAP2295
Flight time 0h 29m
Altitude 15000
Route DUMEX1Q DUMEX W6A SAGOL SAGOL4A
Aircraft DH8D/M-SDE2E3FGRY/H

Departure

Time 2026-04-25 07:15
Airport Mactan Cebu International Airport (RPVM)

Arrival

Time 2026-04-25 07:45
Airport Laguindingan International Airport (RPMY)
Time Latitude Longitude Altitude Speed Heading
2026-04-25 07:01 10.31719 123.98124 38 ft 0 kts 314°
2026-04-25 07:04 10.31719 123.98123 38 ft 0 kts 314°
2026-04-25 07:05 10.31714 123.98128 38 ft 2 kts 314°
2026-04-25 07:05 10.31704 123.98139 38 ft 2 kts 314°
2026-04-25 07:05 10.31696 123.98147 38 ft 0 kts 314°
2026-04-25 07:06 10.31690 123.98158 38 ft 2 kts 278°
2026-04-25 07:06 10.31692 123.98173 37 ft 2 kts 240°
2026-04-25 07:06 10.31694 123.98176 37 ft 2 kts 229°
2026-04-25 07:06 10.31687 123.98168 37 ft 2 kts 226°
2026-04-25 07:07 10.31664 123.98146 37 ft 3 kts 222°
2026-04-25 07:07 10.31655 123.98138 37 ft 1 kts 221°
2026-04-25 07:07 10.31654 123.98138 38 ft 0 kts 221°
2026-04-25 07:09 10.31653 123.98137 37 ft 1 kts 220°
2026-04-25 07:09 10.31638 123.98125 37 ft 4 kts 214°
2026-04-25 07:10 10.31598 123.98120 37 ft 6 kts 160°
2026-04-25 07:10 10.31562 123.98149 37 ft 7 kts 134°
2026-04-25 07:10 10.31526 123.98186 37 ft 7 kts 134°
2026-04-25 07:10 10.31489 123.98225 37 ft 6 kts 144°
2026-04-25 07:11 10.31446 123.98224 37 ft 6 kts 217°
2026-04-25 07:11 10.31403 123.98182 37 ft 11 kts 225°
2026-04-25 07:11 10.31332 123.98111 37 ft 17 kts 225°
2026-04-25 07:11 10.31232 123.98010 37 ft 20 kts 225°
2026-04-25 07:12 10.31139 123.97917 37 ft 18 kts 224°
2026-04-25 07:12 10.30947 123.97725 37 ft 19 kts 225°
2026-04-25 07:12 10.30850 123.97625 37 ft 20 kts 225°
2026-04-25 07:13 10.30747 123.97523 37 ft 20 kts 224°
2026-04-25 07:13 10.30644 123.97419 37 ft 20 kts 224°
2026-04-25 07:13 10.30546 123.97321 37 ft 18 kts 225°
2026-04-25 07:13 10.30458 123.97234 37 ft 16 kts 224°
2026-04-25 07:14 10.30387 123.97164 37 ft 9 kts 214°
2026-04-25 07:14 10.30331 123.97175 37 ft 9 kts 137°
2026-04-25 07:14 10.30317 123.97227 37 ft 8 kts 65°
2026-04-25 07:14 10.30367 123.97283 37 ft 22 kts 45°
2026-04-25 07:15 10.30697 123.97613 38 ft 109 kts 44°
2026-04-25 07:15 10.31382 123.98309 99 ft 157 kts 46°
2026-04-25 07:15 10.32162 123.99139 552 ft 169 kts 46°
2026-04-25 07:15 10.32998 124.00005 1178 ft 176 kts 46°
2026-04-25 07:16 10.33865 124.00884 1866 ft 179 kts 47°
2026-04-25 07:16 10.34719 124.01811 2417 ft 182 kts 57°
2026-04-25 07:16 10.34933 124.03032 2929 ft 183 kts 106°
2026-04-25 07:16 10.34265 124.04150 3473 ft 187 kts 122°
2026-04-25 07:17 10.33492 124.05203 4022 ft 189 kts 123°
2026-04-25 07:17 10.32697 124.06262 4559 ft 191 kts 123°
2026-04-25 07:17 10.31877 124.07335 5101 ft 192 kts 124°
2026-04-25 07:17 10.31054 124.08400 5608 ft 194 kts 124°
2026-04-25 07:18 10.30218 124.09474 6111 ft 196 kts 124°
2026-04-25 07:18 10.29355 124.10574 6620 ft 198 kts 125°
2026-04-25 07:18 10.28500 124.11660 7096 ft 199 kts 125°
2026-04-25 07:18 10.27632 124.12760 7561 ft 202 kts 125°
2026-04-25 07:19 10.26745 124.13880 8059 ft 203 kts 125°
2026-04-25 07:19 10.25857 124.15000 8515 ft 205 kts 125°
2026-04-25 07:19 10.24968 124.16120 8938 ft 207 kts 125°
2026-04-25 07:19 10.24057 124.17267 9365 ft 208 kts 125°
2026-04-25 07:20 10.23150 124.18407 9805 ft 210 kts 126°
2026-04-25 07:20 10.22230 124.19563 10220 ft 212 kts 126°
2026-04-25 07:20 10.21291 124.20742 10650 ft 213 kts 126°
2026-04-25 07:20 10.20356 124.21915 11033 ft 216 kts 127°
2026-04-25 07:21 10.19238 124.22922 11372 ft 221 kts 154°
2026-04-25 07:21 10.17700 124.23178 11708 ft 226 kts 175°
2026-04-25 07:21 10.16116 124.23214 12089 ft 227 kts 176°
2026-04-25 07:21 10.14543 124.23250 12469 ft 228 kts 176°
2026-04-25 07:22 10.12938 124.23287 12847 ft 230 kts 176°
2026-04-25 07:22 10.11331 124.23327 13223 ft 231 kts 176°
2026-04-25 07:22 10.09717 124.23367 13597 ft 231 kts 176°
2026-04-25 07:22 10.08103 124.23410 13942 ft 233 kts 176°
2026-04-25 07:23 10.06470 124.23453 14290 ft 233 kts 176°
2026-04-25 07:23 10.04853 124.23497 14628 ft 234 kts 176°
2026-04-25 07:23 10.03190 124.23543 14859 ft 241 kts 175°
2026-04-25 07:23 10.01480 124.23592 14947 ft 254 kts 176°
2026-04-25 07:24 9.99634 124.23648 14986 ft 273 kts 176°
2026-04-25 07:24 9.97635 124.23708 15005 ft 299 kts 176°
2026-04-25 07:24 9.95460 124.23773 15008 ft 325 kts 176°
2026-04-25 07:24 9.93126 124.23842 15010 ft 345 kts 176°
2026-04-25 07:25 9.90677 124.23913 14999 ft 350 kts 176°
2026-04-25 07:25 9.88218 124.23983 14999 ft 351 kts 176°
2026-04-25 07:25 9.85776 124.24052 15003 ft 350 kts 176°
2026-04-25 07:25 9.83319 124.24121 15008 ft 350 kts 176°
2026-04-25 07:26 9.80880 124.24189 15012 ft 350 kts 176°
2026-04-25 07:26 9.78431 124.24258 15021 ft 350 kts 176°
2026-04-25 07:26 9.75998 124.24326 15029 ft 350 kts 176°
2026-04-25 07:26 9.73539 124.24394 15029 ft 349 kts 176°
2026-04-25 07:27 9.71097 124.24462 15027 ft 349 kts 176°
2026-04-25 07:27 9.68660 124.24530 15023 ft 349 kts 176°
2026-04-25 07:27 9.66225 124.24597 15017 ft 348 kts 176°
2026-04-25 07:27 9.63800 124.24665 15013 ft 348 kts 176°
2026-04-25 07:28 9.61390 124.24731 15007 ft 348 kts 176°
2026-04-25 07:28 9.58948 124.24799 15000 ft 348 kts 176°
2026-04-25 07:28 9.56506 124.24867 14993 ft 348 kts 176°
2026-04-25 07:28 9.54079 124.24935 14986 ft 348 kts 176°
2026-04-25 07:29 9.51647 124.25088 14963 ft 347 kts 169°
2026-04-25 07:29 9.49329 124.25729 14986 ft 345 kts 160°
2026-04-25 07:29 9.47034 124.26490 14983 ft 345 kts 160°
2026-04-25 07:29 9.44743 124.27251 14975 ft 345 kts 160°
2026-04-25 07:30 9.42455 124.28011 14972 ft 346 kts 160°
2026-04-25 07:30 9.40175 124.28766 14967 ft 346 kts 160°
2026-04-25 07:30 9.37871 124.29525 14963 ft 346 kts 160°
2026-04-25 07:30 9.35562 124.30285 14959 ft 347 kts 160°
2026-04-25 07:31 9.33253 124.31043 14953 ft 347 kts 160°
2026-04-25 07:31 9.30952 124.31799 14951 ft 347 kts 160°
2026-04-25 07:31 9.28660 124.32550 14952 ft 347 kts 160°
2026-04-25 07:31 9.26335 124.33312 14951 ft 347 kts 160°
2026-04-25 07:32 9.24032 124.34065 14951 ft 347 kts 160°
2026-04-25 07:32 9.21732 124.34817 14946 ft 344 kts 160°
2026-04-25 07:32 9.19455 124.35561 14877 ft 344 kts 160°
2026-04-25 07:32 9.17179 124.36307 14546 ft 345 kts 160°
2026-04-25 07:33 9.14897 124.37054 14147 ft 345 kts 160°
2026-04-25 07:33 9.12611 124.37803 13726 ft 346 kts 160°
2026-04-25 07:33 9.10317 124.38554 13301 ft 346 kts 160°
2026-04-25 07:33 9.07999 124.39312 12871 ft 345 kts 159°
2026-04-25 07:34 9.05730 124.40053 12449 ft 340 kts 159°
2026-04-25 07:34 9.03447 124.40643 11915 ft 337 kts 171°
2026-04-25 07:34 9.01157 124.40308 11568 ft 335 kts 196°
2026-04-25 07:34 8.98994 124.39381 11163 ft 329 kts 201°
2026-04-25 07:35 8.96959 124.38446 10763 ft 316 kts 202°
2026-04-25 07:35 8.95005 124.37534 10370 ft 303 kts 202°
2026-04-25 07:35 8.93125 124.36652 10002 ft 291 kts 202°
2026-04-25 07:35 8.91295 124.35792 9655 ft 291 kts 201°
2026-04-25 07:36 8.89426 124.34915 9300 ft 292 kts 201°
2026-04-25 07:36 8.87568 124.34044 8948 ft 292 kts 202°
2026-04-25 07:36 8.85731 124.33182 8592 ft 292 kts 201°
2026-04-25 07:36 8.83868 124.32309 8215 ft 289 kts 201°
2026-04-25 07:37 8.82065 124.31464 7850 ft 282 kts 201°
2026-04-25 07:37 8.80298 124.30634 7510 ft 277 kts 201°
2026-04-25 07:37 8.78552 124.29815 7174 ft 273 kts 202°
2026-04-25 07:37 8.76832 124.29008 6843 ft 270 kts 202°
2026-04-25 07:38 8.75124 124.28207 6506 ft 267 kts 202°
2026-04-25 07:38 8.73453 124.27423 6175 ft 264 kts 202°
2026-04-25 07:38 8.71786 124.26640 5852 ft 262 kts 202°
2026-04-25 07:38 8.70134 124.25909 5515 ft 258 kts 195°
2026-04-25 07:39 8.68393 124.25745 5215 ft 248 kts 173°
2026-04-25 07:39 8.66656 124.25871 4904 ft 245 kts 172°
2026-04-25 07:39 8.64979 124.26004 4602 ft 238 kts 172°
2026-04-25 07:39 8.63365 124.26133 4312 ft 228 kts 172°
2026-04-25 07:40 8.61806 124.26297 3935 ft 221 kts 163°
2026-04-25 07:40 8.60590 124.27102 3502 ft 204 kts 117°
2026-04-25 07:40 8.60262 124.28446 3278 ft 199 kts 90°
2026-04-25 07:40 8.60265 124.29853 3020 ft 200 kts 87°
2026-04-25 07:41 8.60309 124.31247 2757 ft 198 kts 86°
2026-04-25 07:41 8.60372 124.32610 2496 ft 194 kts 85°
2026-04-25 07:41 8.60444 124.33929 2236 ft 180 kts 85°
2026-04-25 07:41 8.60511 124.35107 2016 ft 155 kts 84°
2026-04-25 07:42 8.60568 124.36114 1810 ft 132 kts 84°
2026-04-25 07:42 8.60613 124.37013 1749 ft 130 kts 85°
2026-04-25 07:42 8.60659 124.37958 1554 ft 137 kts 84°
2026-04-25 07:42 8.60723 124.38887 1352 ft 129 kts 84°
2026-04-25 07:43 8.60783 124.39778 1168 ft 126 kts 83°
2026-04-25 07:43 8.60843 124.40646 997 ft 123 kts 83°
2026-04-25 07:43 8.60902 124.41503 830 ft 122 kts 83°
2026-04-25 07:43 8.60949 124.42360 654 ft 122 kts 84°
2026-04-25 07:44 8.61019 124.43214 534 ft 122 kts 82°
2026-04-25 07:44 8.61097 124.44077 367 ft 124 kts 82°
2026-04-25 07:44 8.61163 124.44945 203 ft 121 kts 83°
2026-04-25 07:44 8.61222 124.45667 197 ft 68 kts 85°
2026-04-25 07:45 8.61240 124.45906 197 ft 16 kts 86°
2026-04-25 07:45 8.61186 124.45963 197 ft 11 kts 176°
2026-04-25 07:45 8.61109 124.45969 197 ft 10 kts 177°
2026-04-25 07:45 8.61039 124.45973 197 ft 8 kts 190°
2026-04-25 07:46 8.61004 124.45933 197 ft 8 kts 264°
2026-04-25 07:46 8.60988 124.45895 197 ft 5 kts 204°
2026-04-25 07:46 8.60941 124.45895 197 ft 6 kts 174°
2026-04-25 07:46 8.60917 124.45896 197 ft 1 kts 175°
2026-04-25 07:47 8.60916 124.45896 197 ft 0 kts 175°